Showing default

FREGAT RB/CLUSTER 2, 26106

Orbit data source: Space-Track

FREGAT RB/CLUSTER 2, 26106 is a payload satellite owned by Starsem (CIS) in HEO that was launched on Mon, 20 Mar 2000 UTC via a SOYUZ-U-PVB launch vehicle from the Tyuratam Missile And Space Complex (TTMTR). Payload-class satellites include a variety of spacecraft equipped with specific instruments for various scientific and technological missions. These include communications satellites like Starlink; space stations such as the ISS; scientific satellites like the Hubble; Earth observation satellites from companies like Planet Labs, Umbra, and HawkEye 360; GPS; miniature CubeSats for education and research; and military/defense satellites.

Loading next visibility...
Identifier
26106, 2000-015A
Orbit
HEO
Country
Flag of CISCIS
Related business
Manufacturer
AeMa Lanc
Mission
Commercial Technology
Bus & Motor
CLUSTER DUMMY, Unknown motor
Mass
3,382 kg wet, 1,191 kg dry
Launch date (UTC)
2000-03-20 (26 years ago)
Launch vehicle
SOYUZ-U-PVB
Launch site
Tyuratam Missile And Space Complex (TTMTR)
Object type
Payload
Rocket body
Debris
Shape & HBR
Cyl, 1.0 m
Radar Cross Section
3.240 m², Large (>1 m²)

Expand to show TLE details & history
Last TLE update: 3 days ago

TLE from 3 days ago
0 FREGAT RB/CLUSTER 2
1 26106U 00015A   25352.98521790  .00000101  00000-0  43533-4 0  9993
2 26106  65.1033 200.5209 5437067 273.9562  28.7465  4.61254216429894
Epoch: 2025-12-18T23:38Z
TLE epoch observation values (Epoch: 2025-12-18T23:38:42.826Z)
Latitude
-0.00014°
Longitude
118.01581°
Altitude
3,984.99 km
Speed
7.127 km/s
True Right ascension
13h 22m 06s
True Declination
0° 00' 00"
Sunlit
Object was in daylight at epoch
Visualization orbit readout
Latitude
Unknown
Longitude
Unknown
Altitude
Unknown
Speed
Unknown
Apparent Right ascension
Unknown
Apparent Declination
Unknown
Sunlit
N/A
Visualization observer readout
Local Sidereal Time
12:22:28
Azimuth
Unknown
Elevation
Unknown
Doppler factor
Unknown
Orbital elements
Apogee altitude
17,152.882 km
Perigee altitude
577.23 km
Semi-major axis
15,243.193 km
Eccentricity
0.54371
Inclination
65.1033°
RAAN
200.5209°
Arg. of periapsis
273.9562°
True anomaly
86.19329°
Mean anomaly
28.7465°
Eccentric anomaly
53.92513°
Mean motion
1.15327 °/min
Orbital period
312.16 mins
BSTAR
0.000043533
Loading maneuver chart data...
Computing Atmospheric mass density...
Loading historical data...
Loading historical data...
Loading historical data...
Loading historical data...
Loading historical data...
Loading historical data...
Loading historical data...
Other satellites on launch #15 in the year 2000 (2000-03-20 UTC)

Documentation

Showing up to 5 results
|